Time,TemperatureF,DewpointF,PressureIn,WindDirection,WindDirectionDegrees,WindSpeedMPH,WindSpeedGustMPH,Humidity,HourlyPrecipIn,Conditions,Clouds,dailyrainin,SoftwareType,DateUTC
2013-04-11 00:02:00,24.0,14.0,-100.00,SW,225,22.0,29.0,63,0.00,,,-99.99,,2013-04-11 00:02:00,
2013-04-11 00:12:00,24.0,15.0,-100.00,SW,230,23.0,34.0,66,0.00,,,-99.99,,2013-04-11 00:12:00,
2013-04-11 00:22:00,24.0,15.0,-100.00,WSW,245,25.0,34.0,67,0.00,,,-99.99,,2013-04-11 00:22:00,
2013-04-11 00:32:00,25.0,16.0,-100.00,WSW,255,26.0,33.0,68,0.00,,,-99.99,,2013-04-11 00:32:00,
2013-04-11 00:42:00,24.0,16.0,-100.00,WSW,255,24.0,30.0,70,0.00,,,-99.99,,2013-04-11 00:42:00,
2013-04-11 00:52:00,25.0,17.0,-100.00,SW,230,24.0,32.0,70,0.00,,,-99.99,,2013-04-11 00:52:00,
2013-04-11 01:02:00,25.0,17.0,-100.00,West,265,23.0,32.0,70,0.00,,,-99.99,,2013-04-11 01:02:00,
2013-04-11 01:12:00,24.0,17.0,-100.00,SSW,210,22.0,30.0,72,0.00,,,-99.99,,2013-04-11 01:12:00,
2013-04-11 01:22:00,24.0,17.0,-100.00,WSW,245,27.0,32.0,73,0.00,,,-99.99,,2013-04-11 01:22:00,
2013-04-11 01:32:00,24.0,17.0,-100.00,SW,235,26.0,35.0,73,0.00,,,-99.99,,2013-04-11 01:32:00,
2013-04-11 01:42:00,24.0,16.0,-100.00,SW,215,24.0,30.0,72,0.00,,,-99.99,,2013-04-11 01:42:00,
2013-04-11 01:52:00,23.0,16.0,-100.00,SW,235,24.0,29.0,74,0.00,,,-99.99,,2013-04-11 01:52:00,
2013-04-11 02:03:00,23.0,16.0,-100.00,SW,220,23.0,29.0,73,0.00,,,-99.99,,2013-04-11 02:03:00,
2013-04-11 02:12:00,23.0,17.0,-100.00,SW,225,20.0,28.0,75,0.00,,,-99.99,,2013-04-11 02:12:00,
2013-04-11 02:22:00,23.0,17.0,-100.00,SW,235,21.0,28.0,75,0.00,,,-99.99,,2013-04-11 02:22:00,
2013-04-11 02:32:00,23.0,17.0,-100.00,SW,215,21.0,30.0,76,0.00,,,-99.99,,2013-04-11 02:32:00,
2013-04-11 02:42:00,23.0,17.0,-100.00,SW,215,21.0,30.0,76,0.00,,,-99.99,,2013-04-11 02:42:00,
2013-04-11 02:52:00,23.0,17.0,-100.00,SW,220,24.0,34.0,77,0.00,,,-99.99,,2013-04-11 02:52:00,
2013-04-11 03:02:00,24.0,17.0,-100.00,SW,230,29.0,39.0,75,0.00,,,-99.99,,2013-04-11 03:02:00,
2013-04-11 03:12:00,24.0,17.0,-100.00,SW,225,27.0,35.0,73,0.00,,,-99.99,,2013-04-11 03:12:00,
2013-04-11 03:22:00,25.0,17.0,-100.00,SW,225,29.0,37.0,73,0.00,,,-99.99,,2013-04-11 03:22:00,
2013-04-11 03:33:00,25.0,17.0,-100.00,SW,225,27.0,34.0,72,0.00,,,-99.99,,2013-04-11 03:33:00,
2013-04-11 03:43:00,25.0,17.0,-100.00,SW,225,27.0,34.0,71,0.00,,,-99.99,,2013-04-11 03:43:00,
2013-04-11 03:53:00,26.0,18.0,-100.00,SW,225,27.0,39.0,71,0.00,,,-99.99,,2013-04-11 03:53:00,
2013-04-11 04:03:00,25.0,18.0,-100.00,SW,225,29.0,35.0,74,0.00,,,-99.99,,2013-04-11 04:03:00,
2013-04-11 04:12:00,26.0,20.0,-100.00,South,170,30.0,45.0,75,0.00,,,-99.99,,2013-04-11 04:12:00,
2013-04-11 04:22:00,26.0,20.0,-100.00,SW,230,32.0,44.0,75,0.00,,,-99.99,,2013-04-11 04:22:00,
2013-04-11 04:33:00,26.0,20.0,-100.00,SW,225,30.0,38.0,75,0.00,,,-99.99,,2013-04-11 04:33:00,
2013-04-11 04:42:00,26.0,21.0,-100.00,SW,230,30.0,42.0,82,0.00,,,-99.99,,2013-04-11 04:42:00,
2013-04-11 04:52:00,26.0,22.0,-100.00,SSW,200,28.0,40.0,83,0.00,,,-99.99,,2013-04-11 04:52:00,
2013-04-11 05:02:00,26.0,23.0,-100.00,SW,230,30.0,39.0,86,0.00,,,-99.99,,2013-04-11 05:02:00,
2013-04-11 05:13:00,27.0,24.0,-100.00,South,185,37.0,45.0,88,0.00,,,-99.99,,2013-04-11 05:13:00,
2013-04-11 05:22:00,27.0,25.0,-100.00,SW,225,37.0,49.0,89,0.00,,,-99.99,,2013-04-11 05:22:00,
2013-04-11 05:32:00,28.0,26.0,-100.00,SW,225,35.0,45.0,88,0.00,,,-99.99,,2013-04-11 05:32:00,
2013-04-11 05:42:00,28.0,26.0,-100.00,SW,230,37.0,45.0,89,0.00,,,-99.99,,2013-04-11 05:42:00,
2013-04-11 05:52:00,28.0,26.0,-100.00,SW,225,30.0,44.0,90,0.00,,,-99.99,,2013-04-11 05:52:00,
2013-04-11 06:02:00,28.0,26.0,-100.00,South,180,34.0,45.0,92,0.00,,,-99.99,,2013-04-11 06:02:00,
2013-04-11 06:12:00,28.0,26.0,-100.00,SW,225,41.0,50.0,94,0.00,,,-99.99,,2013-04-11 06:12:00,
2013-04-11 06:22:00,28.0,26.0,-100.00,SSW,210,37.0,48.0,94,0.00,,,-99.99,,2013-04-11 06:22:00,
2013-04-11 06:32:00,28.0,26.0,-100.00,SW,215,34.0,51.0,93,0.00,,,-99.99,,2013-04-11 06:32:00,
2013-04-11 06:42:00,28.0,26.0,-100.00,SSW,210,35.0,44.0,92,0.00,,,-99.99,,2013-04-11 06:42:00,
2013-04-11 06:52:00,28.0,26.0,-100.00,SW,225,34.0,45.0,92,0.01,,,-99.99,,2013-04-11 06:52:00,
2013-04-11 07:02:00,29.0,27.0,-100.00,SW,215,32.0,47.0,90,0.00,,,-99.99,,2013-04-11 07:02:00,
2013-04-11 07:12:00,29.0,26.0,-100.00,SW,220,32.0,47.0,89,0.00,,,-99.99,,2013-04-11 07:12:00,
2013-04-11 07:22:00,29.0,26.0,-100.00,SW,225,32.0,39.0,89,0.00,,,-99.99,,2013-04-11 07:22:00,
2013-04-11 07:32:00,29.0,26.0,-100.00,SW,215,32.0,39.0,87,0.00,,,-99.99,,2013-04-11 07:32:00,
2013-04-11 07:42:00,29.0,26.0,-100.00,SW,220,30.0,43.0,89,0.00,,,-99.99,,2013-04-11 07:42:00,
2013-04-11 07:52:00,29.0,26.0,-100.00,SW,225,32.0,41.0,89,0.00,,,-99.99,,2013-04-11 07:52:00,
2013-04-11 08:02:00,29.0,26.0,-100.00,South,190,30.0,41.0,89,0.00,,,-99.99,,2013-04-11 08:02:00,
2013-04-11 08:12:00,29.0,26.0,-100.00,SW,225,33.0,41.0,89,0.00,,,-99.99,,2013-04-11 08:12:00,
2013-04-11 08:22:00,29.0,26.0,-100.00,SW,235,32.0,39.0,89,0.00,,,-99.99,,2013-04-11 08:22:00,
2013-04-11 08:32:00,29.0,26.0,-100.00,SW,225,29.0,40.0,88,0.00,,,-99.99,,2013-04-11 08:32:00,
2013-04-11 08:42:00,29.0,26.0,-100.00,SW,220,27.0,35.0,86,0.00,,,-99.99,,2013-04-11 08:42:00,
2013-04-11 08:52:00,29.0,26.0,-100.00,SSW,210,25.0,42.0,87,0.00,,,-99.99,,2013-04-11 08:52:00,
2013-04-11 09:02:00,29.0,26.0,-100.00,SSW,200,32.0,40.0,85,0.00,,,-99.99,,2013-04-11 09:02:00,
2013-04-11 09:12:00,29.0,26.0,-100.00,SW,225,32.0,45.0,88,0.00,,,-99.99,,2013-04-11 09:12:00,
2013-04-11 09:22:00,30.0,26.0,-100.00,South,190,35.0,44.0,84,0.00,,,-99.99,,2013-04-11 09:22:00,
2013-04-11 09:33:00,29.0,26.0,-100.00,South,190,30.0,39.0,86,0.00,,,-99.99,,2013-04-11 09:33:00,
2013-04-11 09:43:00,29.0,26.0,-100.00,South,190,30.0,39.0,86,0.00,,,-99.99,,2013-04-11 09:43:00,
2013-04-11 09:52:00,29.0,26.0,-100.00,SW,215,33.0,44.0,85,0.00,,,-99.99,,2013-04-11 09:52:00,
2013-04-11 10:02:00,30.0,25.0,-100.00,SW,220,32.0,42.0,83,0.00,,,-99.99,,2013-04-11 10:02:00,
2013-04-11 10:12:00,31.0,26.0,-100.00,SW,230,27.0,38.0,82,0.00,,,-99.99,,2013-04-11 10:12:00,
2013-04-11 10:23:00,30.0,26.0,-100.00,SW,230,22.0,32.0,84,0.00,,,-99.99,,2013-04-11 10:23:00,
2013-04-11 10:32:00,30.0,26.0,-100.00,SW,220,23.0,35.0,85,0.00,,,-99.99,,2013-04-11 10:32:00,
2013-04-11 10:42:00,30.0,26.0,-100.00,SW,220,23.0,35.0,85,0.00,,,-99.99,,2013-04-11 10:42:00,
2013-04-11 10:52:00,29.0,26.0,-100.00,SW,220,25.0,34.0,87,0.00,,,-99.99,,2013-04-11 10:52:00,
2013-04-11 11:02:00,29.0,26.0,-100.00,SW,225,26.0,34.0,88,0.00,,,-99.99,,2013-04-11 11:02:00,
2013-04-11 11:12:00,30.0,26.0,-100.00,SSW,210,29.0,36.0,87,0.00,,,-99.99,,2013-04-11 11:12:00,
2013-04-11 11:22:00,30.0,27.0,-100.00,SSE,165,30.0,38.0,88,0.00,,,-99.99,,2013-04-11 11:22:00,
2013-04-11 11:32:00,30.0,27.0,-100.00,SW,215,29.0,38.0,87,0.00,,,-99.99,,2013-04-11 11:32:00,
2013-04-11 11:42:00,30.0,27.0,-100.00,SW,220,29.0,42.0,88,0.00,,,-99.99,,2013-04-11 11:42:00,
2013-04-11 11:52:00,30.0,27.0,-100.00,SW,225,29.0,36.0,89,0.00,,,-99.99,,2013-04-11 11:52:00,
2013-04-11 12:02:00,30.0,27.0,-100.00,SW,225,27.0,36.0,89,0.00,,,-99.99,,2013-04-11 12:02:00,
2013-04-11 12:12:00,30.0,27.0,-100.00,SW,235,22.0,29.0,89,0.00,,,-99.99,,2013-04-11 12:12:00,
2013-04-11 12:22:00,30.0,28.0,-100.00,SW,235,24.0,30.0,90,0.00,,,-99.99,,2013-04-11 12:22:00,
2013-04-11 12:32:00,30.0,28.0,-100.00,South,185,26.0,31.0,90,0.00,,,-99.99,,2013-04-11 12:32:00,
2013-04-11 12:42:00,31.0,28.0,-100.00,SW,235,23.0,34.0,90,0.00,,,-99.99,,2013-04-11 12:42:00,
2013-04-11 12:52:00,30.0,28.0,-100.00,SW,235,25.0,32.0,91,0.00,,,-99.99,,2013-04-11 12:52:00,
2013-04-11 13:02:00,30.0,29.0,-100.00,SW,225,25.0,32.0,92,0.00,,,-99.99,,2013-04-11 13:02:00,
2013-04-11 13:12:00,30.0,29.0,-100.00,SSW,210,24.0,29.0,93,0.00,,,-99.99,,2013-04-11 13:12:00,
2013-04-11 13:22:00,31.0,29.0,-100.00,WSW,240,22.0,31.0,93,0.00,,,-99.99,,2013-04-11 13:22:00,
2013-04-11 13:32:00,31.0,29.0,-100.00,SW,235,27.0,35.0,93,0.00,,,-99.99,,2013-04-11 13:32:00,
2013-04-11 13:43:00,30.0,29.0,-100.00,SSW,200,23.0,31.0,93,0.00,,,-99.99,,2013-04-11 13:43:00,
2013-04-11 13:52:00,30.0,29.0,-100.00,SW,225,24.0,32.0,94,0.00,,,-99.99,,2013-04-11 13:52:00,
2013-04-11 14:02:00,30.0,29.0,-100.00,South,170,26.0,31.0,94,0.00,,,-99.99,,2013-04-11 14:02:00,
2013-04-11 14:12:00,31.0,29.0,-100.00,WSW,240,25.0,31.0,93,0.00,,,-99.99,,2013-04-11 14:12:00,
2013-04-11 14:32:00,31.0,29.0,-100.00,SW,230,24.0,32.0,93,0.00,,,-99.99,,2013-04-11 14:32:00,
2013-04-11 14:42:00,31.0,29.0,-100.00,South,190,26.0,32.0,94,0.00,,,-99.99,,2013-04-11 14:42:00,
2013-04-11 14:52:00,30.0,29.0,-100.00,WSW,240,29.0,34.0,95,0.00,,,-99.99,,2013-04-11 14:52:00,
2013-04-11 15:02:00,30.0,29.0,-100.00,West,265,27.0,33.0,96,0.01,,,-99.99,,2013-04-11 15:02:00,
2013-04-11 15:12:00,30.0,29.0,-100.00,WSW,245,24.0,31.0,97,0.07,,,-99.99,,2013-04-11 15:12:00,
2013-04-11 15:22:00,30.0,29.0,-100.00,SSW,210,25.0,34.0,98,0.01,,,-99.99,,2013-04-11 15:22:00,
2013-04-11 15:32:00,30.0,29.0,-100.00,SW,215,22.0,30.0,97,0.01,,,-99.99,,2013-04-11 15:32:00,
2013-04-11 15:43:00,30.0,30.0,-100.00,WSW,245,22.0,28.0,98,0.01,,,-99.99,,2013-04-11 15:43:00,
2013-04-11 15:52:00,31.0,30.0,-100.00,WSW,245,20.0,28.0,98,0.01,,,-99.99,,2013-04-11 15:52:00,
2013-04-11 16:02:00,31.0,31.0,-100.00,West,265,16.0,24.0,98,0.06,,,-99.99,,2013-04-11 16:02:00,
2013-04-11 16:12:00,31.0,30.0,-100.00,West,265,17.0,22.0,98,0.06,,,-99.99,,2013-04-11 16:12:00,
2013-04-11 16:22:00,31.0,31.0,-100.00,West,265,14.0,21.0,98,0.01,,,-99.99,,2013-04-11 16:22:00,
2013-04-11 16:32:00,31.0,31.0,-100.00,West,260,16.0,22.0,98,0.03,,,-99.99,,2013-04-11 16:32:00,
2013-04-11 16:41:00,32.0,31.0,-100.00,West,260,16.0,22.0,97,0.00,,,-99.99,,2013-04-11 16:41:00,
2013-04-11 16:52:00,33.0,32.0,-100.00,West,265,15.0,21.0,96,0.00,,,-99.99,,2013-04-11 16:52:00,
2013-04-11 17:02:00,33.0,32.0,-100.00,West,275,15.0,22.0,93,0.01,,,-99.99,,2013-04-11 17:02:00,
2013-04-11 17:12:00,33.0,32.0,-100.00,West,270,15.0,21.0,95,0.01,,,-99.99,,2013-04-11 17:12:00,
2013-04-11 17:23:00,32.0,32.0,-100.00,West,265,16.0,23.0,97,0.01,,,-99.99,,2013-04-11 17:23:00,
2013-04-11 17:42:00,33.0,31.0,-100.00,West,260,20.0,24.0,95,0.00,,,-99.99,,2013-04-11 17:42:00,
2013-04-11 17:52:00,33.0,31.0,-100.00,West,265,16.0,23.0,94,0.00,,,-99.99,,2013-04-11 17:52:00,
2013-04-11 18:03:00,33.0,31.0,-100.00,West,265,14.0,26.0,94,0.00,,,-99.99,,2013-04-11 18:03:00,
2013-04-11 18:13:00,33.0,32.0,-100.00,West,270,13.0,26.0,94,0.00,,,-99.99,,2013-04-11 18:13:00,
2013-04-11 18:22:00,33.0,31.0,-100.00,West,265,17.0,24.0,93,0.00,,,-99.99,,2013-04-11 18:22:00,
2013-04-11 18:33:00,33.0,31.0,-100.00,West,265,17.0,24.0,92,0.00,,,-99.99,,2013-04-11 18:33:00,
2013-04-11 18:42:00,34.0,31.0,-100.00,West,280,16.0,24.0,91,0.00,,,-99.99,,2013-04-11 18:42:00,
2013-04-11 18:52:00,35.0,32.0,-100.00,WNW,285,15.0,21.0,89,0.00,,,-99.99,,2013-04-11 18:52:00,
2013-04-11 19:03:00,35.0,32.0,-100.00,West,270,19.0,24.0,89,0.00,,,-99.99,,2013-04-11 19:03:00,
2013-04-11 19:13:00,35.0,32.0,-100.00,West,270,16.0,24.0,87,0.00,,,-99.99,,2013-04-11 19:13:00,
2013-04-11 19:22:00,36.0,32.0,-100.00,West,270,18.0,26.0,84,0.00,,,-99.99,,2013-04-11 19:22:00,
2013-04-11 19:32:00,35.0,31.0,-100.00,West,265,20.0,26.0,83,0.00,,,-99.99,,2013-04-11 19:32:00,
2013-04-11 19:42:00,35.0,31.0,-100.00,West,275,24.0,27.0,82,0.00,,,-99.99,,2013-04-11 19:42:00,
2013-04-11 19:52:00,36.0,31.0,-100.00,West,275,19.0,29.0,82,0.00,,,-99.99,,2013-04-11 19:52:00,
2013-04-11 20:02:00,36.0,32.0,-100.00,West,270,19.0,27.0,83,0.00,,,-99.99,,2013-04-11 20:02:00,
2013-04-11 20:13:00,36.0,31.0,-100.00,West,270,19.0,25.0,80,0.00,,,-99.99,,2013-04-11 20:13:00,
2013-04-11 20:22:00,36.0,31.0,-100.00,West,275,20.0,24.0,79,0.00,,,-99.99,,2013-04-11 20:22:00,
2013-04-11 20:33:00,36.0,29.0,-100.00,West,270,17.0,24.0,77,0.00,,,-99.99,,2013-04-11 20:33:00,
2013-04-11 20:52:00,37.0,30.0,-100.00,West,280,14.0,24.0,76,0.00,,,-99.99,,2013-04-11 20:52:00,
2013-04-11 21:02:00,36.0,29.0,-100.00,West,280,16.0,22.0,74,0.00,,,-99.99,,2013-04-11 21:02:00,
2013-04-11 21:12:00,36.0,28.0,-100.00,WNW,285,14.0,21.0,73,0.00,,,-99.99,,2013-04-11 21:12:00,
2013-04-11 21:22:00,37.0,29.0,-100.00,WNW,290,16.0,19.0,71,0.00,,,-99.99,,2013-04-11 21:22:00,
2013-04-11 21:33:00,37.0,29.0,-100.00,WNW,285,12.0,17.0,72,0.00,,,-99.99,,2013-04-11 21:33:00,
2013-04-11 21:42:00,37.0,29.0,-100.00,West,275,14.0,19.0,73,0.00,,,-99.99,,2013-04-11 21:42:00,
2013-04-11 21:53:00,37.0,29.0,-100.00,WNW,285,13.0,18.0,73,0.00,,,-99.99,,2013-04-11 21:53:00,
2013-04-11 22:03:00,36.0,29.0,-100.00,West,265,12.0,17.0,75,0.00,,,-99.99,,2013-04-11 22:03:00,
2013-04-11 22:13:00,35.0,28.0,-100.00,West,265,15.0,19.0,74,0.00,,,-99.99,,2013-04-11 22:13:00,
2013-04-11 22:23:00,36.0,27.0,-100.00,West,280,14.0,19.0,70,0.00,,,-99.99,,2013-04-11 22:23:00,
2013-04-11 22:33:00,37.0,28.0,-100.00,West,265,17.0,21.0,70,0.00,,,-99.99,,2013-04-11 22:33:00,
2013-04-11 22:44:00,38.0,29.0,-100.00,WNW,285,14.0,21.0,68,0.00,,,-99.99,,2013-04-11 22:44:00,
2013-04-11 22:52:00,36.0,27.0,-100.00,West,265,16.0,21.0,71,0.00,,,-99.99,,2013-04-11 22:52:00,
2013-04-11 23:03:00,36.0,27.0,-100.00,West,280,14.0,19.0,71,0.00,,,-99.99,,2013-04-11 23:03:00,
2013-04-11 23:12:00,37.0,29.0,-100.00,West,275,11.0,19.0,71,0.00,,,-99.99,,2013-04-11 23:12:00,
2013-04-11 23:22:00,36.0,29.0,-100.00,West,275,14.0,18.0,72,0.00,,,-99.99,,2013-04-11 23:22:00,
2013-04-11 23:32:00,36.0,29.0,-100.00,West,265,11.0,17.0,75,0.01,,,-99.99,,2013-04-11 23:32:00,
2013-04-11 23:52:00,36.0,30.0,-100.00,West,275,11.0,16.0,77,0.00,,,-99.99,,2013-04-11 23:52:00,